This is the latest recevied weather packets stored in our database for station/object DL2GPS-3. If no packets are shown the sender has not sent any weather packets the latest 10 day(s).
| Time | Temp. | Humidity | Pressure | Rain* | Wind** | Luminosity | Snow |
|---|---|---|---|---|---|---|---|
| 1777855836 | 10.56° C | 77% | 1017 hPa | - | - | - | - |
| 1777855232 | 10.56° C | 74% | 1017.1 hPa | - | - | - | - |
| 1777854628 | 10.56° C | 76% | 1017 hPa | - | - | - | - |
| 1777854022 | 10° C | 79% | 1017.1 hPa | - | - | - | - |
| 1777853418 | 10° C | 79% | 1017.2 hPa | - | - | - | - |
| 1777852813 | 10° C | 77% | 1017 hPa | - | - | - | - |
| 1777852208 | 10.56° C | 77% | 1017.1 hPa | - | - | - | - |
| 1777851602 | 10.56° C | 75% | 1017.1 hPa | - | - | - | - |
| 1777850998 | 11.11° C | 75% | 1017.1 hPa | - | - | - | - |
| 1777850393 | 11.11° C | 74% | 1017.2 hPa | - | - | - | - |
| 1777849789 | 10.56° C | 74% | 1017.1 hPa | - | - | - | - |
| 1777849183 | 10.56° C | 74% | 1017.1 hPa | - | - | - | - |
| 1777848578 | 11.11° C | 72% | 1017.2 hPa | - | - | - | - |
| 1777847973 | 11.67° C | 71% | 1017.1 hPa | - | - | - | - |
| 1777847369 | 11.67° C | 68% | 1017.1 hPa | - | - | - | - |
| 1777846763 | 12.22° C | 67% | 1017 hPa | - | - | - | - |
| 1777846159 | 12.22° C | 68% | 1017 hPa | - | - | - | - |
| 1777845554 | 11.67° C | 70% | 1016.9 hPa | - | - | - | - |
| 1777844949 | 11.67° C | 71% | 1016.9 hPa | - | - | - | - |
| 1777844343 | 11.67° C | 69% | 1017 hPa | - | - | - | - |
| 1777843738 | 11.67° C | 68% | 1016.9 hPa | - | - | - | - |
| 1777843135 | 11.67° C | 68% | 1016.8 hPa | - | - | - | - |
| 1777842529 | 12.22° C | 67% | 1016.8 hPa | - | - | - | - |
| 1777841924 | 12.22° C | 64% | 1016.9 hPa | - | - | - | - |
| 1777841319 | 12.22° C | 63% | 1016.9 hPa | - | - | - | - |
* Rain since midnight (hover to see other rain measurements)
** Current wind speed in m/s (hover to see current wind gust speed)